[[{"header":{"parameterUnit":"m.s-1","parameterCategory":2,"la1":30.2991,"la2":30.254,"lo1":-89.0895,"lo2":-89.0444,"dy":0.0017,"dx":0.0017,"nx":28,"ny":28,"refTime":"2024-06-06T09:00:00:Z","depth":"0","parameterNumber":2,"parameterNumberName":"U-component_of_CURRENTS"},"data":[0,0,0,0,0,0,0,0,0,0,0,0,0,0,0,0,0,0,0,0,0,0,0,0,0,0,0,0,0,0,0,0,0,0,0,0,0,0,0,0,0,0,0,0,0,0,0,0,0,0,0,0,0,0,0,0,0,0,0.3175,0.3176,0,0.3277,0.3279,0.328,0.331,0.331,0.331,0.3309,0.3359,0.336,0.3362,0,0,0,0,0,0,0,0,0,0,0,0,0,0.3009,0.3012,0.3175,0.3176,0.3178,0.3277,0.3279,0.328,0.3311,0.331,0.331,0.3309,0.3358,0.336,0.3362,0,0,0,0,0,0,0,0,0,0,0,0,0,0.3091,0.3012,0.3174,0.3206,0.321,0.3277,0.3279,0.328,0.3311,0.331,0.331,0.3309,0.3358,0.336,0.3363,0.3388,0,0,0.337,0.3371,0,0,0,0,0,0,0,0,0.3087,0.3097,0.32,0.3204,0.3209,0.3282,0.3238,0.3314,0.3311,0.3271,0.3309,0.3309,0.333,0.3335,0.3353,0.3391,0.3393,0.337,0.3372,0.3373,0.3374,0,0,0,0,0,0,0,0.3081,0.3093,0.3213,0.3202,0.3207,0.3217,0.3228,0.3253,0.3299,0.3274,0.3277,0.3292,0.3332,0.3351,0.3355,0.3393,0.337,0.3372,0.3374,0.3375,0.3482,0.3483,0,0,0,0,0,0,0.3073,0.3088,0.321,0.3217,0.3147,0.322,0.3233,0.3258,0.3301,0.3308,0.3292,0.3293,0.3347,0.3352,0.3356,0.341,0.3373,0.3375,0.3377,0.348,0.3482,0.3483,0,0,0,0,0,0,0.3069,0.3083,0.3206,0.3155,0.3172,0.3224,0.3252,0.326,0.3285,0.3315,0.332,0.3309,0.3347,0.3353,0.3393,0.3411,0.3376,0.3378,0.3479,0.3481,0.3483,0.3504,0,0,0,0,0,0,0.3064,0.3082,0.3096,0.3155,0.3174,0.3255,0.3253,0.3263,0.3296,0.3298,0.3332,0.3336,0.3347,0.339,0.3396,0.3414,0.338,0.3477,0.348,0.3482,0.3502,0.3507,0.3511,0,0,0,0,0,0.3058,0.3086,0.3097,0.3111,0.3194,0.3257,0.3268,0.3301,0.3297,0.3318,0.3341,0.3335,0.341,0.3393,0.34,0.3419,0.3476,0.3479,0.3482,0.35,0.3506,0.3511,0,0,0,0,0,0,0.3027,0.3094,0.3106,0.3154,0.3203,0.3263,0.3288,0.3305,0.3341,0.3339,0.3356,0.3363,0.3399,0.3413,0.3393,0.3459,0.344,0.3445,0.3452,0.3458,0.3462,0.3448,0.3382,0,0,0,0,0,0.3025,0.3064,0.3125,0.3165,0.3188,0.3236,0.3264,0.3288,0.3328,0.3343,0.3365,0.339,0.3418,0.344,0.3461,0.3505,0.3549,0.3522,0.3526,0.353,0.3524,0.3555,0.3561,0.3494,0.3493,0.3493,0,0,0.3025,0.3067,0.3089,0.316,0.3199,0.3246,0.3252,0.3301,0.3333,0.3342,0.3386,0.3402,0.3431,0.3474,0.3492,0.349,0.3599,0.3534,0.3537,0.3529,0.3559,0.3565,0.3571,0.3496,0.3495,0.3495,0,0,0.305,0.3081,0.3122,0.3162,0.3225,0.3257,0.327,0.3329,0.3346,0.3396,0.3403,0.3431,0.3483,0.3505,0.3523,0.3568,0.3611,0.3579,0.3602,0.3633,0.3638,0.3643,0.3818,0.3838,0.3592,0.3592,0.3592,0,0.3043,0.3106,0.3143,0.3193,0.3226,0.3261,0.3308,0.3337,0.3398,0.3413,0.3411,0.3476,0.3495,0.3544,0.3562,0.3575,0.3646,0.3577,0.3637,0.3642,0.3646,0.3824,0.3845,0.3594,0.3594,0.3593,0.3593,0,0.3105,0.3148,0.3176,0.3247,0.3286,0.3333,0.3377,0.3408,0.3425,0.345,0.349,0.3516,0.3551,0.3569,0.3583,0.3629,0.3696,0.3629,0.3618,0.3654,0.3841,0.3863,0.3596,0.3595,0.3595,0.3594,0,0,0.311,0.3199,0.321,0.3234,0.3315,0.3348,0.3403,0.3457,0.348,0.3517,0.3552,0.3592,0.3588,0.3607,0.3622,0.3658,0.3788,0.3664,0.3665,0.3835,0.3975,0.4058,0.4092,0.3721,0.3722,0.3723,0.4133,0,0.3147,0.3225,0.3271,0.3333,0.3369,0.3412,0.3453,0.3498,0.3533,0.3571,0.3589,0.363,0.3608,0.3636,0.3656,0.3749,0.3829,0.3691,0.3917,0.3928,0.3988,0.411,0.3988,0.4341,0.4155,0.4159,0.4161,0,0.3197,0.3236,0.3301,0.3354,0.3374,0.3414,0.3473,0.3516,0.3575,0.3601,0.3634,0.3657,0.3747,0.3686,0.3873,0.379,0.3881,0.3951,0.3966,0.4034,0.4046,0.4253,0.4388,0.4253,0.4195,0.4193,0.419,0,0.3169,0.3255,0.3296,0.3321,0.3392,0.3419,0.3457,0.3521,0.3566,0.3631,0.3691,0.3748,0.3836,0.3899,0.4068,0.3975,0.4294,0.4179,0.4363,0.4378,0.4312,0.4316,0.4321,0.4285,0.4284,0.4283,0.4282,0,0.319,0.3213,0.328,0.3295,0.3329,0.3391,0.3438,0.3482,0.3571,0.3652,0.3697,0.3811,0.388,0.4067,0.4143,0.4393,0.4372,0.442,0.447,0.4333,0.4333,0.4239,0.416,0.4299,0.4295,0.4292,0.4289,0,0.3152,0.3205,0.3232,0.3294,0.3316,0.3333,0.3432,0.3472,0.3574,0.3695,0.3739,0.3926,0.42,0.434,0.4547,0.4559,0.4637,0.4816,0.4739,0.4768,0.473,0.4659,0.4603,0.447,0.5077,0.5081,0.5084,0,0.3137,0.3153,0.3205,0.3225,0.3253,0.3302,0.3343,0.3445,0.3524,0.3791,0.3867,0.4177,0.4399,0.4804,0.4901,0.5136,0.488,0.5114,0.4851,0.4765,0.4721,0.4467,0.4335,0.485,0.4851,0.4852,0.4853,0,0.3096,0.3114,0.314,0.3196,0.3235,0.3282,0.337,0.345,0.3622,0.3782,0.4088,0.4306,0.4699,0.4895,0.5176,0.5252,0.486,0.5145,0.5011,0.4529,0.4289,0.4174,0.4654,0.4863,0.4862,0.4861,0.486,0.486,0.3065,0.308,0.3147,0.319,0.3235,0.3325,0.3368,0.3513,0.3702,0.3965,0.4191,0.447,0.4749,0.5138,0.5182,0.5135,0.5024,0.4972,0.4919,0.4689,0.443,0.5021,0.5273,0.5274,0.5275,0.5276,0.5277,0,0.3094,0.3136,0.3157,0.3237,0.3286,0.3319,0.3436,0.3491,0.3723,0.3979,0.4243,0.4542,0.4759,0.4891,0.5007,0.4899,0.4583,0.4769,0.4314,0.4208,0.4731,0.4583,0.4742,0.4742,0.4742,0.4742,0.4743,0.4743,0.3134,0.319,0.3207,0.3303,0.3348,0.3407,0.3475,0.3554,0.3704,0.3941,0.4093,0.4258,0.4523,0.4768,0.4711,0.4608,0.4214,0.4118,0.4037,0.4352,0.436,0.4368,0.4205,0.4283,0.4282,0.3311,0.3304,0.3299]},{"header":{"parameterUnit":"m.s-1","parameterCategory":2,"la1":30.2991,"la2":30.254,"lo1":-89.0895,"lo2":-89.0444,"dy":0.0017,"dx":0.0017,"nx":28,"ny":28,"refTime":"2024-06-06T09:00:00:Z","depth":"0","parameterNumber":3,"parameterNumberName":"V-component_of_CURRENTS"},"data":[0,0,0,0,0,0,0,0,0,0,0,0,0,0,0,0,0,0,0,0,0,0,0,0,0,0,0,0,0,0,0,0,0,0,0,0,0,0,0,0,0,0,0,0,0,0,0,0,0,0,0,0,0,0,0,0,0,0,-0.0289,-0.0291,0,-0.0471,-0.0473,-0.0475,-0.0549,-0.0548,-0.0547,-0.0547,-0.0772,-0.0779,-0.0785,0,0,0,0,0,0,0,0,0,0,0,0,0,-0.0103,-0.0106,-0.0289,-0.0291,-0.0293,-0.047,-0.0473,-0.0476,-0.0549,-0.0548,-0.0547,-0.0547,-0.077,-0.0778,-0.0786,0,0,0,0,0,0,0,0,0,0,0,0,0,-0.0226,-0.0107,-0.0289,-0.0349,-0.0356,-0.047,-0.0473,-0.0477,-0.0549,-0.0548,-0.0547,-0.0546,-0.0767,-0.0777,-0.0787,-0.0868,0,0,-0.0817,-0.0821,0,0,0,0,0,0,0,0,-0.0219,-0.0234,-0.0338,-0.0345,-0.0353,-0.0484,-0.049,-0.0609,-0.0549,-0.0479,-0.0547,-0.0546,-0.0679,-0.0696,-0.0736,-0.0879,-0.0889,-0.0818,-0.0824,-0.0828,-0.0831,0,0,0,0,0,0,0,-0.0211,-0.0227,-0.0364,-0.034,-0.0349,-0.04,-0.0416,-0.0513,-0.0585,-0.0485,-0.049,-0.0506,-0.0683,-0.0726,-0.0741,-0.0892,-0.0818,-0.0827,-0.0833,-0.0837,-0.1111,-0.1112,0,0,0,0,0,0,-0.0179,-0.0218,-0.0358,-0.0369,-0.0279,-0.0403,-0.0421,-0.0445,-0.0583,-0.0602,-0.0507,-0.0509,-0.0709,-0.073,-0.075,-0.0853,-0.0828,-0.0838,-0.0843,-0.1109,-0.1111,-0.1112,0,0,0,0,0,0,-0.0175,-0.019,-0.0351,-0.0295,-0.0318,-0.0407,-0.0433,-0.0449,-0.049,-0.0599,-0.0619,-0.0531,-0.0709,-0.0736,-0.0835,-0.0862,-0.0842,-0.0851,-0.1108,-0.111,-0.1112,-0.106,0,0,0,0,0,0,-0.0169,-0.0188,-0.0199,-0.0293,-0.032,-0.0421,-0.0435,-0.0453,-0.0501,-0.0505,-0.0627,-0.0646,-0.0711,-0.082,-0.0845,-0.0875,-0.0859,-0.1106,-0.1109,-0.1111,-0.106,-0.106,-0.106,0,0,0,0,0,-0.0162,-0.0189,-0.0199,-0.0216,-0.0332,-0.0422,-0.0441,-0.0502,-0.0502,-0.0533,-0.0604,-0.0643,-0.0853,-0.083,-0.0859,-0.0892,-0.1105,-0.1108,-0.1111,-0.106,-0.106,-0.106,0,0,0,0,0,0,-0.012,-0.0201,-0.0214,-0.0264,-0.0332,-0.0433,-0.047,-0.05,-0.0583,-0.0587,-0.067,-0.0697,-0.0791,-0.0852,-0.0823,-0.0977,-0.0983,-0.0991,-0.0934,-0.0935,-0.0935,-0.088,-0.0867,0,0,0,0,0,-0.0111,-0.0151,-0.0231,-0.0272,-0.0302,-0.0381,-0.0423,-0.0465,-0.0545,-0.0579,-0.0659,-0.0746,-0.083,-0.0886,-0.0972,-0.1068,-0.1055,-0.1105,-0.1105,-0.1105,-0.108,-0.1095,-0.1092,-0.1122,-0.1122,-0.1122,0,0,-0.0105,-0.0156,-0.0178,-0.0265,-0.0322,-0.0376,-0.0406,-0.0475,-0.0515,-0.0594,-0.0678,-0.0752,-0.0854,-0.0951,-0.0999,-0.1005,-0.1084,-0.1108,-0.1107,-0.1082,-0.1097,-0.1094,-0.1091,-0.1124,-0.1124,-0.1124,0,0,-0.0121,-0.0158,-0.0196,-0.0249,-0.033,-0.038,-0.0392,-0.049,-0.0528,-0.0618,-0.0674,-0.0755,-0.0899,-0.0969,-0.1022,-0.1078,-0.1078,-0.1112,-0.1079,-0.1095,-0.1091,-0.1088,-0.1027,-0.1019,-0.1118,-0.1118,-0.1118,0,-0.0107,-0.016,-0.0222,-0.0271,-0.0303,-0.0372,-0.041,-0.0472,-0.0587,-0.061,-0.0635,-0.0805,-0.0903,-0.0993,-0.1016,-0.1076,-0.1051,-0.1068,-0.1089,-0.1086,-0.1084,-0.1023,-0.1015,-0.1116,-0.1116,-0.1116,-0.1116,0,-0.0151,-0.0187,-0.0216,-0.0288,-0.0337,-0.0384,-0.0459,-0.0508,-0.055,-0.06,-0.0686,-0.0804,-0.0889,-0.095,-0.1008,-0.1051,-0.1023,-0.1077,-0.1075,-0.1076,-0.1014,-0.1005,-0.1113,-0.1113,-0.1114,-0.1115,0,0,-0.0128,-0.0223,-0.0229,-0.0244,-0.034,-0.0378,-0.0441,-0.0504,-0.051,-0.062,-0.0627,-0.0796,-0.0823,-0.0883,-0.0964,-0.0998,-0.097,-0.1024,-0.1026,-0.0936,-0.0931,-0.0827,-0.0808,-0.1021,-0.102,-0.102,-0.0877,0,-0.0134,-0.0192,-0.0248,-0.0289,-0.0317,-0.0381,-0.0418,-0.0481,-0.0531,-0.0559,-0.0657,-0.0702,-0.0808,-0.0827,-0.0886,-0.0936,-0.0953,-0.0999,-0.0967,-0.0964,-0.0851,-0.0798,-0.0791,-0.0657,-0.087,-0.0868,-0.0867,0,-0.0151,-0.0181,-0.0214,-0.0254,-0.0269,-0.0297,-0.0329,-0.0373,-0.0432,-0.046,-0.0518,-0.0575,-0.0633,-0.0722,-0.0785,-0.0799,-0.0857,-0.0903,-0.09,-0.0811,-0.0847,-0.0703,-0.0635,-0.0922,-0.0855,-0.0856,-0.0857,0,-0.0081,-0.015,-0.0158,-0.0179,-0.0245,-0.025,-0.0274,-0.0331,-0.0315,-0.0364,-0.0315,-0.0435,-0.04,-0.0533,-0.0608,-0.0695,-0.0628,-0.077,-0.0726,-0.0716,-0.0707,-0.0697,-0.089,-0.0816,-0.0816,-0.0817,-0.0817,0,-0.0056,-0.0062,-0.0115,-0.0117,-0.0095,-0.0168,-0.0131,-0.0175,-0.017,-0.0074,-0.0226,-0.012,-0.0345,-0.0336,-0.0506,-0.0514,-0.0538,-0.0671,-0.0672,-0.0685,-0.0675,-0.0923,-0.1071,-0.0811,-0.0813,-0.0814,-0.0815,0,0.0016,-0.0029,-0.0024,-0.0061,-0.0061,-0.0035,-0.0002,0.0044,0.0034,0.0172,0.0192,0.0177,0.0221,0.0031,-0.0097,-0.0287,-0.05,-0.0398,-0.0344,-0.0342,-0.0633,-0.0774,-0.0849,-0.0971,-0.0358,-0.0355,-0.0352,0,0.0044,0.0053,0.0051,0.0099,0.0093,0.013,0.0179,0.0151,0.0247,0.0407,0.0529,0.0605,0.0745,0.0617,0.028,0.0057,-0.0266,-0.0131,-0.0348,-0.0598,-0.076,-0.088,-0.0991,-0.0303,-0.03,-0.0298,-0.0296,0,0.0133,0.0139,0.0156,0.0258,0.032,0.0389,0.0481,0.0599,0.066,0.0836,0.1141,0.1274,0.116,0.0993,0.0645,0.0399,-0.0326,-0.0085,-0.0399,-0.0748,-0.0837,-0.097,-0.0404,-0.0273,-0.0276,-0.0277,-0.0278,-0.0279,0.0233,0.0291,0.0356,0.0452,0.0537,0.0708,0.0845,0.101,0.126,0.1611,0.1662,0.1955,0.1533,0.1083,0.0716,-0.0058,-0.0098,-0.0366,-0.0509,-0.0601,-0.0759,-0.0078,0.0073,0.0073,0.0073,0.0072,0.0072,0,0.0409,0.0477,0.0568,0.0724,0.0884,0.0864,0.11,0.13,0.1702,0.2018,0.2328,0.231,0.1797,0.1122,0.0125,-0.0422,-0.0726,-0.0755,-0.1028,-0.1123,-0.0568,-0.0615,-0.0539,-0.0538,-0.0538,-0.0538,-0.0537,-0.0537,0.0528,0.0673,0.0715,0.1023,0.1143,0.1398,0.1562,0.1866,0.2136,0.2619,0.2822,0.2918,0.2343,0.0582,-0.0693,-0.1009,-0.1457,-0.1464,-0.1692,-0.145,-0.1431,-0.1412,-0.1499,-0.1609,-0.161,-0.2246,-0.2252,-0.2257]}],[{"header":{"parameterUnit":"m.s-1","parameterCategory":2,"la1":30.2991,"la2":30.254,"lo1":-89.0895,"lo2":-89.0444,"dy":0.0017,"dx":0.0017,"nx":28,"ny":28,"refTime":"2024-06-06T09:00:00:Z","depth":"2","parameterNumber":2,"parameterNumberName":"U-component_of_CURRENTS"},"data":[0,0,0,0,0,0,0,0,0,0,0,0,0,0,0,0,0,0,0,0,0,0,0,0,0,0,0,0,0,0,0,0,0,0,0,0,0,0,0,0,0,0,0,0,0,0,0,0,0,0,0,0,0,0,0,0,0,0,0.2499,0.2501,0,0.2591,0.2592,0.2592,0.2553,0.2551,0.255,0.2548,0.2706,0.2712,0.2717,0,0,0,0,0,0,0,0,0,0,0,0,0,0.231,0.2313,0.2499,0.2501,0.2503,0.2591,0.2592,0.2592,0.2553,0.2551,0.255,0.2548,0.2704,0.2711,0.2718,0,0,0,0,0,0,0,0,0,0,0,0,0,0.2389,0.2314,0.2499,0.25,0.2501,0.2591,0.2592,0.2592,0.2554,0.2551,0.2549,0.2547,0.2702,0.271,0.2719,0.2816,0,0,0.2744,0.2748,0,0,0,0,0,0,0,0,0.2384,0.2395,0.2498,0.25,0.2502,0.2565,0.2583,0.2673,0.2554,0.2526,0.2548,0.2546,0.2672,0.2683,0.2693,0.2824,0.283,0.2745,0.275,0.2754,0.2756,0,0,0,0,0,0,0,0.2379,0.2391,0.2528,0.25,0.2503,0.2503,0.2511,0.2599,0.2606,0.2528,0.2527,0.255,0.2672,0.2685,0.2697,0.2833,0.2745,0.2752,0.2758,0.2761,0.2983,0.2984,0,0,0,0,0,0,0.2385,0.2386,0.2525,0.2531,0.2445,0.2509,0.2517,0.2541,0.2603,0.2612,0.2552,0.2549,0.2672,0.2687,0.2702,0.2822,0.2754,0.2762,0.2766,0.2982,0.2983,0.2984,0,0,0,0,0,0,0.2381,0.2397,0.2521,0.2466,0.2483,0.2515,0.2542,0.2544,0.2565,0.2623,0.263,0.2573,0.267,0.2691,0.2798,0.2828,0.2765,0.2773,0.2981,0.2982,0.2984,0.3063,0,0,0,0,0,0,0.2375,0.2395,0.2416,0.2467,0.2487,0.2571,0.2545,0.2548,0.2587,0.2582,0.2644,0.2655,0.267,0.2785,0.2806,0.2839,0.278,0.298,0.2982,0.2983,0.306,0.3067,0.3074,0,0,0,0,0,0.2368,0.2406,0.2417,0.2434,0.2515,0.2573,0.2582,0.2592,0.259,0.2601,0.2658,0.2653,0.2807,0.2796,0.2819,0.2854,0.2979,0.2981,0.2983,0.3056,0.3066,0.3073,0,0,0,0,0,0,0.2348,0.2409,0.242,0.2479,0.2522,0.2569,0.2592,0.2611,0.2664,0.2673,0.2708,0.2725,0.2824,0.283,0.2815,0.2913,0.2877,0.2884,0.2924,0.2933,0.294,0.292,0.2787,0,0,0,0,0,0.2356,0.2398,0.2451,0.2506,0.252,0.2563,0.2592,0.2612,0.2668,0.2686,0.275,0.2799,0.2851,0.2885,0.2944,0.3029,0.3044,0.3048,0.3055,0.3061,0.3057,0.308,0.309,0.299,0.299,0.299,0,0,0.236,0.2413,0.243,0.2505,0.2534,0.2601,0.2571,0.2631,0.2701,0.2706,0.2829,0.2857,0.2884,0.2966,0.3005,0.2975,0.3114,0.3064,0.3069,0.3061,0.3083,0.3093,0.3102,0.2992,0.2991,0.2991,0,0,0.2405,0.2436,0.2477,0.2529,0.2602,0.264,0.2663,0.2736,0.276,0.2887,0.2889,0.2934,0.3053,0.3052,0.3067,0.3151,0.3163,0.3157,0.3175,0.3199,0.3208,0.3215,0.3321,0.3337,0.3144,0.3144,0.3144,0,0.2406,0.2491,0.25,0.2574,0.2629,0.2664,0.2734,0.2786,0.29,0.2921,0.2936,0.3053,0.3086,0.313,0.3143,0.317,0.3207,0.3148,0.321,0.3217,0.3223,0.3329,0.3345,0.3148,0.3148,0.3147,0.3147,0,0.2491,0.2566,0.2601,0.2707,0.2754,0.2833,0.2898,0.2958,0.3011,0.3056,0.3129,0.3169,0.3206,0.322,0.3219,0.3258,0.3286,0.3234,0.3192,0.3238,0.3347,0.3363,0.3154,0.3152,0.3151,0.315,0,0,0.2463,0.2624,0.2639,0.2694,0.2836,0.287,0.2985,0.3058,0.3091,0.3195,0.3237,0.3308,0.3288,0.3298,0.3285,0.3297,0.3404,0.3281,0.3281,0.3395,0.3526,0.3458,0.3469,0.3358,0.336,0.3361,0.3612,0,0.2524,0.2678,0.2746,0.2878,0.2945,0.3007,0.3091,0.3161,0.3215,0.3274,0.3284,0.3337,0.3328,0.3327,0.3347,0.3384,0.3436,0.3345,0.3455,0.346,0.3398,0.3479,0.3219,0.341,0.3627,0.363,0.3632,0,0.2572,0.2678,0.2814,0.2934,0.2956,0.3032,0.3105,0.3188,0.3261,0.3298,0.3336,0.3357,0.3417,0.3377,0.3498,0.3442,0.3495,0.3524,0.3533,0.3439,0.3416,0.3382,0.343,0.3658,0.3656,0.3654,0.3652,0,0.2531,0.2702,0.2807,0.2867,0.3019,0.3043,0.3102,0.3177,0.3221,0.3295,0.3348,0.3405,0.3464,0.3512,0.3619,0.3554,0.3765,0.3678,0.3687,0.3688,0.3469,0.3444,0.3759,0.3759,0.3758,0.3757,0.3757,0,0.2583,0.2654,0.2781,0.285,0.2904,0.3,0.3046,0.3102,0.3191,0.3267,0.3337,0.3421,0.3493,0.3625,0.3672,0.3773,0.3827,0.372,0.3732,0.3497,0.3473,0.3656,0.3641,0.3767,0.3765,0.3763,0.3761,0,0.2539,0.2654,0.2739,0.2868,0.2895,0.2911,0.3013,0.3047,0.3154,0.3262,0.3299,0.3471,0.3633,0.3745,0.3874,0.3859,0.3937,0.396,0.3729,0.3704,0.3837,0.3823,0.3963,0.3962,0.3962,0.3961,0.3961,0,0.2537,0.2594,0.2703,0.2724,0.278,0.2834,0.2878,0.2999,0.3058,0.3305,0.336,0.3563,0.3674,0.3882,0.3895,0.3988,0.4022,0.3785,0.356,0.3853,0.3852,0.3839,0.3826,0.3361,0.3356,0.3351,0.3348,0,0.2504,0.2533,0.2598,0.266,0.2695,0.2748,0.2829,0.2862,0.3048,0.3129,0.3306,0.3414,0.3672,0.3627,0.3762,0.3761,0.3725,0.3694,0.4076,0.3319,0.3295,0.3291,0.3296,0.3309,0.3313,0.3316,0.3318,0.332,0.2432,0.244,0.2523,0.256,0.2608,0.2645,0.2619,0.2722,0.2771,0.2894,0.3133,0.323,0.338,0.3394,0.3368,0.3357,0.3561,0.34,0.3409,0.3424,0.3278,0.325,0.3237,0.324,0.3243,0.3245,0.3247,0,0.2353,0.2398,0.2427,0.2444,0.2419,0.2534,0.2578,0.2519,0.2496,0.2713,0.2809,0.2709,0.2759,0.2926,0.2855,0.2874,0.2796,0.276,0.2635,0.268,0.2718,0.2528,0.2293,0.2289,0.2285,0.2282,0,0,0.2331,0.2325,0.2347,0.2267,0.2278,0.2228,0.2222,0.217,0.2247,0.2218,0.2295,0.261,0.2833,0.2496,0.2495,0.2383,0.2487,0.2295,0.3077,0.2975,0.3007,0.3128,0.2893,0,0,0,0,0]},{"header":{"parameterUnit":"m.s-1","parameterCategory":2,"la1":30.2991,"la2":30.254,"lo1":-89.0895,"lo2":-89.0444,"dy":0.0017,"dx":0.0017,"nx":28,"ny":28,"refTime":"2024-06-06T09:00:00:Z","depth":"2","parameterNumber":3,"parameterNumberName":"V-component_of_CURRENTS"},"data":[0,0,0,0,0,0,0,0,0,0,0,0,0,0,0,0,0,0,0,0,0,0,0,0,0,0,0,0,0,0,0,0,0,0,0,0,0,0,0,0,0,0,0,0,0,0,0,0,0,0,0,0,0,0,0,0,0,0,0.0053,0.0052,0,0.0025,0.0025,0.0025,0.0005,0.0005,0.0004,0.0004,-0.0196,-0.0201,-0.0206,0,0,0,0,0,0,0,0,0,0,0,0,0,0.0059,0.0059,0.0053,0.0052,0.0052,0.0025,0.0025,0.0025,0.0005,0.0005,0.0004,0.0004,-0.0194,-0.02,-0.0206,0,0,0,0,0,0,0,0,0,0,0,0,0,0.0048,0.0059,0.0053,0.0037,0.0035,0.0025,0.0025,0.0025,0.0005,0.0005,0.0004,0.0004,-0.0193,-0.02,-0.0207,-0.0244,0,0,-0.023,-0.0234,0,0,0,0,0,0,0,0,0.0049,0.0048,0.004,0.0038,0.0036,0.0016,-0.0046,-0.0074,0.0005,0.0018,0.0004,0.0003,-0.0142,-0.0154,-0.0153,-0.0253,-0.0262,-0.0231,-0.0236,-0.0239,-0.0241,0,0,0,0,0,0,0,0.0049,0.0049,0.0044,0.0039,0.0037,0.0022,0.002,-0.0051,-0.0061,0.0017,0.0015,0.001,-0.0144,-0.0145,-0.0158,-0.0265,-0.0231,-0.0237,-0.0242,-0.0245,-0.0444,-0.0444,0,0,0,0,0,0,0.0052,0.005,0.0044,0.0043,0.0039,0.0022,0.002,0.0025,-0.0056,-0.0068,0.001,0.0009,-0.0132,-0.0149,-0.0165,-0.0264,-0.0239,-0.0246,-0.025,-0.0443,-0.0444,-0.0445,0,0,0,0,0,0,0.0052,0.0052,0.0045,0.0043,0.0041,0.0022,0.0028,0.0024,0.0023,-0.006,-0.0075,0.0011,-0.0133,-0.0155,-0.0243,-0.027,-0.0249,-0.0256,-0.0442,-0.0443,-0.0444,-0.043,0,0,0,0,0,0,0.0053,0.0052,0.0061,0.0044,0.0041,0.0065,0.0028,0.0024,0.0019,0.0017,-0.0065,-0.0083,-0.0135,-0.0231,-0.025,-0.028,-0.0262,-0.0441,-0.0443,-0.0444,-0.0429,-0.043,-0.0431,0,0,0,0,0,0.0053,0.0078,0.0062,0.0061,0.0052,0.0066,0.0065,0.0049,0.002,0.0041,-0.0047,-0.008,-0.0253,-0.0239,-0.0261,-0.0293,-0.044,-0.0442,-0.0444,-0.0429,-0.043,-0.0431,0,0,0,0,0,0,0.0084,0.0077,0.0059,0.0079,0.0079,0.0062,0.008,0.0052,0.0006,-0.0015,-0.01,-0.0124,-0.0213,-0.025,-0.0231,-0.0351,-0.0349,-0.0355,-0.033,-0.0332,-0.0332,-0.0292,-0.0268,0,0,0,0,0,0.0093,0.0107,0.0097,0.011,0.0119,0.0094,0.0095,0.0077,0.0032,0.0014,-0.0068,-0.0153,-0.0235,-0.0279,-0.0351,-0.0419,-0.0435,-0.045,-0.0451,-0.0451,-0.0432,-0.05,-0.0505,-0.045,-0.045,-0.045,0,0,0.0109,0.0101,0.0111,0.0117,0.0116,0.0116,0.0096,0.0104,0.007,-0.0009,-0.0091,-0.0167,-0.0255,-0.0336,-0.0377,-0.0372,-0.0471,-0.0453,-0.0453,-0.0434,-0.0502,-0.0507,-0.0512,-0.0451,-0.0451,-0.0451,0,0,0.0157,0.0146,0.0185,0.0177,0.0173,0.0144,0.0146,0.0113,0.0082,-0.0007,-0.0078,-0.016,-0.0294,-0.0349,-0.0399,-0.0444,-0.0478,-0.0473,-0.0447,-0.0514,-0.0519,-0.0523,-0.0529,-0.0534,-0.0469,-0.0469,-0.0469,0,0.0172,0.0195,0.0198,0.0216,0.0197,0.0154,0.0164,0.0125,0.0047,0.0014,-0.0034,-0.0219,-0.0298,-0.0382,-0.0405,-0.0446,-0.047,-0.0439,-0.0514,-0.0519,-0.0524,-0.0529,-0.0535,-0.0468,-0.0468,-0.0468,-0.0468,0,0.0246,0.0243,0.0264,0.0252,0.0246,0.0241,0.0188,0.0152,0.007,0.0011,-0.0096,-0.0208,-0.0307,-0.0353,-0.0407,-0.0474,-0.0473,-0.0513,-0.0508,-0.0529,-0.0532,-0.0539,-0.0467,-0.0468,-0.0468,-0.0468,0,0,0.0308,0.0313,0.031,0.0302,0.0249,0.0254,0.02,0.0151,0.0122,0.0001,-0.005,-0.0209,-0.026,-0.0316,-0.0387,-0.0447,-0.051,-0.0492,-0.0495,-0.0487,-0.0619,-0.0578,-0.0581,-0.0576,-0.0577,-0.0579,-0.06,0,0.0348,0.0378,0.036,0.0347,0.0352,0.0286,0.0246,0.0189,0.0107,0.0042,-0.0074,-0.0164,-0.025,-0.03,-0.0378,-0.0475,-0.053,-0.0497,-0.0607,-0.0608,-0.0564,-0.0589,-0.0555,-0.0568,-0.0606,-0.0607,-0.0608,0,0.042,0.0412,0.0419,0.0387,0.0389,0.0355,0.0294,0.0257,0.0167,0.0109,0.001,-0.0079,-0.0185,-0.0263,-0.0428,-0.0408,-0.051,-0.0584,-0.0588,-0.0555,-0.058,-0.056,-0.0579,-0.0618,-0.0618,-0.0617,-0.0616,0,0.0456,0.0454,0.0446,0.0425,0.0383,0.0363,0.0331,0.0265,0.026,0.0152,0.014,-0.0015,-0.0077,-0.024,-0.0387,-0.0428,-0.054,-0.062,-0.0668,-0.0664,-0.0654,-0.0647,-0.0741,-0.0741,-0.0741,-0.074,-0.074,0,0.0481,0.0476,0.0456,0.0433,0.0435,0.0397,0.0391,0.0346,0.031,0.0342,0.0177,0.0187,-0.0082,-0.0171,-0.0342,-0.0487,-0.051,-0.065,-0.0676,-0.0645,-0.0637,-0.0702,-0.0697,-0.0741,-0.0741,-0.0741,-0.0741,0,0.0505,0.0492,0.049,0.045,0.0446,0.0443,0.0451,0.047,0.0419,0.0461,0.0437,0.0326,0.0214,-0.0001,-0.0229,-0.0396,-0.0558,-0.0605,-0.0511,-0.0527,-0.0652,-0.0647,-0.0693,-0.0692,-0.0691,-0.069,-0.069,0,0.0529,0.0513,0.0505,0.0525,0.0495,0.0501,0.0528,0.0506,0.0563,0.0587,0.064,0.0535,0.0513,0.0215,-0.0109,-0.0382,-0.0453,-0.0536,-0.0634,-0.0631,-0.0653,-0.0648,-0.0644,-0.0608,-0.0607,-0.0606,-0.0605,0,0.0526,0.051,0.0505,0.055,0.0576,0.0647,0.0695,0.0781,0.0812,0.0872,0.0981,0.0962,0.0669,0.039,-0.0011,-0.0207,-0.0502,-0.0524,-0.0562,-0.0617,-0.0552,-0.0572,-0.0571,-0.0596,-0.0597,-0.0598,-0.0598,-0.0599,0.0515,0.053,0.0529,0.0582,0.0656,0.08,0.0901,0.1006,0.1148,0.1274,0.1252,0.1231,0.0859,0.0357,0.0012,-0.0383,-0.0406,-0.057,-0.0573,-0.0578,-0.0556,-0.0493,-0.0518,-0.0519,-0.0519,-0.0519,-0.052,0,0.0488,0.0515,0.0571,0.0674,0.0814,0.0823,0.1028,0.1156,0.1379,0.1462,0.1529,0.1225,0.0892,0.0484,-0.0097,-0.0451,-0.0515,-0.0547,-0.0567,-0.0572,-0.0578,-0.0558,-0.052,-0.0521,-0.0522,-0.0523,0,0,0.0464,0.0513,0.056,0.0782,0.089,0.1091,0.1235,0.1414,0.1532,0.1642,0.1623,0.1515,0.103,0.0615,0.0134,-0.0188,-0.0297,-0.0248,-0.0211,-0.0182,-0.0183,-0.0554,-0.0524,0,0,0,0,0]}],[{"header":{"parameterUnit":"m.s-1","parameterCategory":2,"la1":30.2991,"la2":30.254,"lo1":-89.0895,"lo2":-89.0444,"dy":0.0017,"dx":0.0017,"nx":28,"ny":28,"refTime":"2024-06-06T09:00:00:Z","depth":"4","parameterNumber":2,"parameterNumberName":"U-component_of_CURRENTS"},"data":[0,0,0,0,0,0,0,0,0,0,0,0,0,0,0,0,0,0,0,0,0,0,0,0,0,0,0,0,0,0,0,0,0,0,0,0,0,0,0,0,0,0,0,0,0,0,0,0,0,0,0,0,0,0,0,0,0,0,0.136,0.1361,0,0.1403,0.1403,0.1403,0.1454,0.1455,0.1456,0.1457,0.1509,0.1509,0.1509,0,0,0,0,0,0,0,0,0,0,0,0,0,0.1317,0.1318,0.136,0.1361,0.1361,0.1402,0.1403,0.1403,0.1454,0.1455,0.1457,0.1458,0.1508,0.1509,0.151,0,0,0,0,0,0,0,0,0,0,0,0,0,0.1344,0.1318,0.136,0.1393,0.1396,0.1402,0.1403,0.1403,0.1454,0.1455,0.1457,0.1458,0.1508,0.1509,0.151,0.1486,0,0,0.1512,0.1512,0,0,0,0,0,0,0,0,0.1342,0.1345,0.1387,0.1391,0.1395,0.1426,0.1407,0.1432,0.1454,0.143,0.1457,0.1459,0.1482,0.1485,0.1487,0.1488,0.149,0.1512,0.1512,0.1513,0.1513,0,0,0,0,0,0,0,0.134,0.1344,0.1375,0.1388,0.1392,0.1404,0.1409,0.1412,0.1446,0.1433,0.1437,0.1444,0.1484,0.1486,0.1489,0.1491,0.1512,0.1513,0.1513,0.1513,0.1594,0.1596,0,0,0,0,0,0,0.1337,0.1342,0.1374,0.1377,0.1373,0.1404,0.1409,0.1413,0.1446,0.1453,0.1442,0.1446,0.1484,0.1488,0.1491,0.1561,0.1513,0.1513,0.1514,0.1592,0.1594,0.1596,0,0,0,0,0,0,0.1336,0.1339,0.1372,0.1362,0.1367,0.1403,0.1407,0.1413,0.1449,0.1454,0.1461,0.1476,0.1486,0.149,0.1523,0.156,0.1514,0.1514,0.159,0.1593,0.1595,0.1639,0,0,0,0,0,0,0.1334,0.1339,0.1353,0.1361,0.1368,0.1395,0.1406,0.1413,0.145,0.1456,0.1484,0.1489,0.1487,0.1522,0.1524,0.156,0.1515,0.1588,0.1592,0.1595,0.1636,0.1643,0.1649,0,0,0,0,0,0.1333,0.1341,0.1353,0.1358,0.1382,0.1396,0.14,0.1429,0.1451,0.1467,0.1491,0.1489,0.1544,0.1523,0.1525,0.1563,0.1587,0.1591,0.1594,0.1633,0.1642,0.1649,0,0,0,0,0,0,0.1333,0.1347,0.1361,0.1376,0.1395,0.1406,0.1427,0.1445,0.1476,0.1494,0.1499,0.1505,0.1556,0.1549,0.1526,0.1598,0.157,0.1574,0.1599,0.1607,0.1614,0.1633,0.1515,0,0,0,0,0,0.1338,0.1348,0.1365,0.1379,0.1393,0.1416,0.1432,0.1453,0.1474,0.1491,0.151,0.1537,0.1566,0.1579,0.16,0.1624,0.1637,0.1654,0.1661,0.1667,0.1686,0.1728,0.174,0.1609,0.1609,0.1609,0,0,0.1338,0.1351,0.1357,0.1381,0.14,0.1415,0.143,0.1463,0.1488,0.149,0.1537,0.1564,0.158,0.162,0.1642,0.1622,0.1712,0.1672,0.1676,0.1692,0.1734,0.1746,0.1758,0.1612,0.1611,0.1611,0,0,0.1336,0.1363,0.1369,0.1381,0.1417,0.1437,0.1453,0.1484,0.1518,0.1557,0.1578,0.1627,0.1654,0.168,0.1694,0.1749,0.1752,0.1761,0.1803,0.1843,0.1854,0.1864,0.1896,0.1908,0.1757,0.1757,0.1757,0,0.1341,0.1349,0.1375,0.138,0.14,0.1448,0.1465,0.1497,0.1538,0.158,0.1584,0.1674,0.1686,0.1746,0.1772,0.1766,0.1787,0.1765,0.1852,0.1862,0.1871,0.1901,0.1914,0.1759,0.1759,0.1759,0.1758,0,0.1323,0.1347,0.1355,0.1381,0.1407,0.1431,0.1477,0.153,0.1585,0.1622,0.1713,0.1737,0.1797,0.1808,0.1807,0.1887,0.188,0.1859,0.1828,0.1887,0.1915,0.1927,0.1763,0.1762,0.1761,0.1761,0,0,0.129,0.1335,0.134,0.1367,0.1414,0.1438,0.1501,0.1577,0.1641,0.17,0.1779,0.1841,0.1883,0.1903,0.1916,0.1949,0.2029,0.1939,0.194,0.1965,0.2124,0.2034,0.2039,0.2024,0.2027,0.2029,0.2115,0,0.1277,0.1294,0.1325,0.1367,0.1388,0.146,0.1508,0.1587,0.1673,0.176,0.1831,0.1905,0.1908,0.1951,0.1992,0.2028,0.2067,0.2008,0.2068,0.207,0.1979,0.2052,0.2037,0.2125,0.2128,0.213,0.2131,0,0.124,0.1268,0.1297,0.138,0.1398,0.1437,0.1563,0.1617,0.1748,0.1812,0.1916,0.1975,0.2068,0.2045,0.2151,0.2117,0.2138,0.215,0.2152,0.2065,0.2004,0.2055,0.2154,0.2153,0.2151,0.2149,0.2148,0,0.1191,0.1254,0.1289,0.1304,0.1392,0.1452,0.1523,0.1646,0.1712,0.1866,0.1933,0.2048,0.2124,0.2172,0.2239,0.2201,0.2339,0.2278,0.2216,0.2209,0.2242,0.223,0.235,0.235,0.235,0.235,0.235,0,0.1143,0.1177,0.1279,0.1289,0.1363,0.1438,0.1538,0.1628,0.1753,0.1845,0.1965,0.205,0.2165,0.2263,0.228,0.231,0.2381,0.2249,0.2235,0.2258,0.2247,0.2251,0.2238,0.2353,0.2352,0.2352,0.2351,0,0.1064,0.1123,0.1177,0.129,0.1335,0.1392,0.1533,0.1597,0.1729,0.1858,0.1911,0.2084,0.222,0.2318,0.2418,0.2362,0.2388,0.2378,0.2427,0.241,0.2212,0.2201,0.2291,0.2289,0.2287,0.2285,0.2284,0,0.1016,0.1033,0.1161,0.1204,0.1263,0.1364,0.1423,0.1567,0.164,0.1869,0.1915,0.2114,0.2226,0.2294,0.2393,0.2439,0.241,0.2393,0.2272,0.2234,0.2212,0.2203,0.2195,0.2281,0.228,0.228,0.2279,0,0.0935,0.0994,0.1037,0.1129,0.1207,0.1281,0.1394,0.143,0.1614,0.175,0.1893,0.1995,0.2155,0.2246,0.2326,0.2339,0.238,0.2372,0.2373,0.226,0.2223,0.22,0.2194,0.2273,0.2274,0.2274,0.2275,0,0.088,0.0893,0.0968,0.1043,0.1134,0.1189,0.1256,0.1362,0.1451,0.1704,0.176,0.1975,0.215,0.2199,0.2264,0.2293,0.2234,0.2126,0.2139,0.2147,0.2063,0.1992,0.1982,0,0,0,0,0,0.0823,0.0829,0.0882,0.096,0.1046,0.1108,0.1231,0.1301,0.1487,0.1548,0.165,0.18,0.1938,0.2037,0.2038,0.2186,0.2229,0.2175,0.2104,0.2236,0.2244,0.216,0,0,0,0,0,0,0.0783,0.0815,0.0843,0.0883,0.0922,0.1007,0.1082,0.1201,0.1242,0.1443,0.1526,0.1686,0.1838,0.1931,0.2005,0.2036,0.1953,0.2305,0.23,0.2232,0.2239,0.2245,0.2161,0,0,0,0,0]},{"header":{"parameterUnit":"m.s-1","parameterCategory":2,"la1":30.2991,"la2":30.254,"lo1":-89.0895,"lo2":-89.0444,"dy":0.0017,"dx":0.0017,"nx":28,"ny":28,"refTime":"2024-06-06T09:00:00:Z","depth":"4","parameterNumber":3,"parameterNumberName":"V-component_of_CURRENTS"},"data":[0,0,0,0,0,0,0,0,0,0,0,0,0,0,0,0,0,0,0,0,0,0,0,0,0,0,0,0,0,0,0,0,0,0,0,0,0,0,0,0,0,0,0,0,0,0,0,0,0,0,0,0,0,0,0,0,0,0,0.027,0.0271,0,0.0291,0.0291,0.0291,0.0262,0.0261,0.0261,0.026,0.0251,0.0252,0.0252,0,0,0,0,0,0,0,0,0,0,0,0,0,0.0189,0.0191,0.027,0.0271,0.0271,0.0291,0.0291,0.0291,0.0262,0.0261,0.026,0.026,0.0251,0.0252,0.0252,0,0,0,0,0,0,0,0,0,0,0,0,0,0.0216,0.0191,0.027,0.0261,0.0261,0.0291,0.0291,0.0291,0.0262,0.0261,0.026,0.0259,0.0251,0.0252,0.0252,0.0279,0,0,0.0254,0.0255,0,0,0,0,0,0,0,0,0.0215,0.0219,0.0262,0.0262,0.0262,0.0275,0.026,0.0287,0.0263,0.0259,0.026,0.0259,0.0259,0.0259,0.0262,0.0279,0.0279,0.0255,0.0255,0.0255,0.0255,0,0,0,0,0,0,0,0.0213,0.0218,0.0275,0.0263,0.0263,0.0251,0.0254,0.0264,0.0262,0.0259,0.0258,0.0265,0.0258,0.0261,0.0261,0.0279,0.0254,0.0255,0.0256,0.0256,0.0299,0.03,0,0,0,0,0,0,0.0219,0.0216,0.0275,0.0276,0.0238,0.0254,0.0257,0.027,0.0263,0.0262,0.0266,0.0264,0.0261,0.0261,0.0261,0.0307,0.0255,0.0256,0.0256,0.0298,0.0299,0.03,0,0,0,0,0,0,0.0217,0.0224,0.0274,0.0248,0.0254,0.0257,0.0272,0.0271,0.0278,0.0269,0.0267,0.0275,0.026,0.026,0.0286,0.0305,0.0256,0.0257,0.0297,0.0299,0.03,0.0389,0,0,0,0,0,0,0.0215,0.0223,0.0239,0.0249,0.0256,0.0305,0.0273,0.0272,0.0286,0.0283,0.0277,0.0274,0.0259,0.0285,0.0287,0.0305,0.0257,0.0297,0.0298,0.0299,0.0385,0.0393,0.0399,0,0,0,0,0,0.0212,0.0249,0.024,0.0247,0.0277,0.0307,0.031,0.0304,0.0288,0.0304,0.03,0.0275,0.0293,0.0288,0.0289,0.0308,0.0296,0.0298,0.0299,0.0382,0.0391,0.0399,0,0,0,0,0,0,0.0223,0.025,0.024,0.0282,0.0295,0.0303,0.0327,0.0315,0.0324,0.0323,0.03,0.0299,0.0322,0.0306,0.0299,0.032,0.0284,0.0286,0.0346,0.0355,0.0362,0.0358,0.0258,0,0,0,0,0,0.0233,0.027,0.0279,0.0316,0.0326,0.0324,0.0337,0.0333,0.0341,0.0344,0.0341,0.0333,0.033,0.0336,0.0333,0.0362,0.0302,0.0367,0.0375,0.0381,0.0377,0.0309,0.0309,0.0305,0.0305,0.0305,0,0,0.0247,0.027,0.0288,0.0321,0.0332,0.0365,0.0329,0.036,0.0384,0.0344,0.0383,0.0364,0.0343,0.0367,0.0374,0.0358,0.0351,0.0383,0.0389,0.0381,0.0311,0.0311,0.0311,0.0306,0.0306,0.0306,0,0,0.0305,0.0314,0.0363,0.038,0.0406,0.0408,0.0419,0.0432,0.0433,0.0468,0.0434,0.0428,0.0445,0.0424,0.0415,0.0461,0.039,0.0459,0.05,0.0435,0.0435,0.0433,0.0355,0.0346,0.0465,0.0466,0.0466,0,0.0317,0.0375,0.0381,0.0428,0.0448,0.0431,0.0474,0.0482,0.0501,0.05,0.0493,0.048,0.0468,0.0466,0.0482,0.0478,0.0422,0.0474,0.0444,0.0442,0.0439,0.0359,0.0348,0.047,0.0469,0.0469,0.0469,0,0.0406,0.0446,0.048,0.053,0.0553,0.059,0.0595,0.0611,0.0606,0.06,0.0601,0.0577,0.0558,0.0555,0.0541,0.0517,0.0477,0.046,0.0423,0.0445,0.0359,0.0346,0.0476,0.0475,0.0473,0.0472,0,0,0.0442,0.0524,0.0534,0.0563,0.0604,0.063,0.067,0.0687,0.0696,0.0698,0.0697,0.0689,0.065,0.0635,0.06,0.0553,0.0492,0.0508,0.0503,0.0432,0.0332,0.0287,0.0268,0.0469,0.0467,0.0466,0.0279,0,0.0502,0.0602,0.0627,0.0705,0.0746,0.074,0.0777,0.0786,0.0779,0.0776,0.0725,0.0717,0.0688,0.0672,0.0623,0.0521,0.0462,0.0543,0.032,0.0313,0.0271,0.0253,0.0461,0.0269,0.0266,0.0264,0.0262,0,0.0577,0.063,0.0719,0.0777,0.0793,0.0837,0.0861,0.0892,0.0874,0.086,0.0826,0.0779,0.0714,0.0684,0.0514,0.0566,0.0458,0.0375,0.0366,0.0281,0.0244,0.0241,0.0237,0.0239,0.0241,0.0243,0.0244,0,0.0598,0.069,0.0761,0.0784,0.085,0.0879,0.091,0.0917,0.093,0.0903,0.0887,0.0806,0.0749,0.0618,0.0451,0.0478,0.024,0.0251,0.0102,0.0097,0.0155,0.0158,0.0118,0.0119,0.0119,0.012,0.012,0,0.0649,0.0703,0.0778,0.0815,0.0882,0.0917,0.0971,0.0979,0.098,0.0986,0.0929,0.0884,0.0728,0.058,0.044,0.0216,0.022,0.0092,0.0043,0.0196,0.0207,0.0144,0.015,0.0113,0.0114,0.0116,0.0117,0,0.0665,0.072,0.0795,0.0871,0.0899,0.0947,0.1013,0.1037,0.1039,0.1035,0.1024,0.0914,0.0718,0.0535,0.0292,0.0189,-0.0011,-0.0094,0.0059,0.0024,-0.0106,-0.0094,-0.0267,-0.027,-0.0273,-0.0275,-0.0277,0,0.0682,0.0726,0.0824,0.0863,0.0904,0.0977,0.1021,0.106,0.1079,0.1044,0.1029,0.0858,0.0759,0.0377,0.0192,-0.011,-0.0137,-0.0235,-0.0139,-0.0117,-0.0147,-0.013,-0.0115,-0.0281,-0.0282,-0.0283,-0.0284,0,0.0689,0.073,0.0782,0.0866,0.0929,0.1002,0.1068,0.1082,0.1113,0.111,0.1008,0.0836,0.0601,0.0348,0.0096,-0.0104,-0.0159,-0.0263,-0.0257,-0.0168,-0.0137,-0.016,-0.0141,-0.0293,-0.0292,-0.0291,-0.029,0,0.0675,0.0707,0.0775,0.0849,0.093,0.1002,0.1048,0.1062,0.1082,0.1056,0.1008,0.0792,0.0672,0.0344,0.0117,-0.0096,-0.0121,-0.0143,-0.0144,-0.0136,-0.003,0.0034,-0.0127,0,0,0,0,0,0.0648,0.0682,0.0748,0.0829,0.0915,0.0974,0.1059,0.1096,0.1126,0.1057,0.104,0.0827,0.0497,0.0352,0.0128,0.0065,-0.0164,-0.0202,-0.0191,-0.0345,-0.0334,-0.0234,0,0,0,0,0,0,0.0624,0.0681,0.0728,0.0803,0.0859,0.0955,0.1022,0.1051,0.1016,0.1015,0.0832,0.0776,0.0439,0.0608,0.0118,0.0055,0.0036,-0.0352,-0.0356,-0.0351,-0.0341,-0.0333,-0.0226,0,0,0,0,0]}]]